| time (UTC) | temp F | wind direction | speed MPH | gust MPH | rain 1hr in | rain 24hr in | rain mn in | humidity % | barometer mb |
| 20260510033941 | 50 | 270 | 12.0 | 21.0 | 0.00 | 0.01 | 0.00 | 82 | 1022.3 |
| 20260510033431 | 50 | 270 | 11.0 | 21.0 | 0.00 | 0.01 | 0.00 | 82 | 1022.5 |
| 20260510032920 | 50 | 270 | 15.0 | 19.0 | 0.00 | 0.01 | 0.00 | 81 | 1022.3 |
| 20260510032410 | 50 | 270 | 11.0 | 21.0 | 0.00 | 0.01 | 0.00 | 82 | 1022.6 |
| 20260510031900 | 50 | 225 | 16.0 | 22.0 | 0.00 | 0.01 | 0.00 | 81 | 1022.6 |
| 20260510031350 | 50 | 270 | 11.0 | 22.0 | 0.00 | 0.01 | 0.00 | 81 | 1022.5 |
| 20260510030840 | 50 | 270 | 17.0 | 22.0 | 0.00 | 0.01 | 0.00 | 81 | 1022.4 |
| 20260510030330 | 50 | 270 | 12.0 | 22.0 | 0.00 | 0.01 | 0.00 | 82 | 1022.3 |
| 20260510025820 | 50 | 270 | 11.0 | 22.0 | 0.00 | 0.01 | 0.01 | 82 | 1022.3 |
| 20260510025310 | 50 | 270 | 11.0 | 17.0 | 0.00 | 0.01 | 0.01 | 82 | 1022.2 |
| 20260510024800 | 50 | 270 | 9.0 | 17.0 | 0.00 | 0.01 | 0.01 | 82 | 1022.2 |
| 20260510023229 | 50 | 270 | 8.0 | 17.0 | 0.00 | 0.01 | 0.01 | 83 | 1022.3 |
| 20260510022719 | 50 | 270 | 8.0 | 15.0 | 0.00 | 0.01 | 0.01 | 83 | 1022.1 |
| 20260510021659 | 50 | 270 | 8.0 | 15.0 | 0.00 | 0.01 | 0.01 | 83 | 1022.1 |
| 20260510021149 | 50 | 270 | 9.0 | 15.0 | 0.00 | 0.01 | 0.01 | 83 | 1022.3 |
| 20260510020638 | 50 | 270 | 9.0 | 15.0 | 0.00 | 0.01 | 0.01 | 83 | 1021.9 |
| 20260510015618 | 50 | 270 | 4.0 | 14.0 | 0.00 | 0.01 | 0.01 | 84 | 1021.8 |
| 20260510015108 | 50 | 270 | 8.0 | 14.0 | 0.00 | 0.01 | 0.01 | 84 | 1022.1 |
| 20260510014558 | 50 | 270 | 7.0 | 14.0 | 0.00 | 0.01 | 0.01 | 84 | 1021.9 |
| 20260510014048 | 50 | 270 | 4.0 | 14.0 | 0.00 | 0.01 | 0.01 | 84 | 1021.8 |
| 20260510013538 | 50 | 225 | 5.0 | 14.0 | 0.00 | 0.01 | 0.01 | 84 | 1021.9 |
| 20260510013027 | 50 | 270 | 8.0 | 14.0 | 0.00 | 0.01 | 0.01 | 85 | 1021.9 |
| 20260510012518 | 49 | 270 | 5.0 | 15.0 | 0.00 | 0.01 | 0.01 | 85 | 1021.7 |
| 20260510012007 | 49 | 270 | 8.0 | 15.0 | 0.00 | 0.01 | 0.01 | 85 | 1021.7 |
| 20260510011457 | 49 | 270 | 8.0 | 15.0 | 0.00 | 0.01 | 0.01 | 85 | 1021.6 |
| 20260510010948 | 49 | 270 | 8.0 | 14.0 | 0.00 | 0.01 | 0.01 | 85 | 1021.5 |
| 20260510010437 | 49 | 270 | 9.0 | 14.0 | 0.00 | 0.01 | 0.01 | 85 | 1021.6 |
| 20260510005927 | 49 | 270 | 8.0 | 15.0 | 0.00 | 0.01 | 0.01 | 85 | 1021.4 |
| 20260510005416 | 49 | 270 | 7.0 | 15.0 | 0.00 | 0.01 | 0.01 | 85 | 1021.5 |
| 20260510004907 | 49 | 270 | 6.0 | 13.0 | 0.00 | 0.01 | 0.01 | 85 | 1021.4 |
| 20260510004357 | 49 | 270 | 6.0 | 14.0 | 0.00 | 0.01 | 0.01 | 85 | 1021.3 |
| 20260510003848 | 49 | 270 | 8.0 | 14.0 | 0.00 | 0.01 | 0.01 | 85 | 1021.3 |
| 20260510003337 | 49 | 270 | 8.0 | 17.0 | 0.00 | 0.01 | 0.01 | 85 | 1021.2 |
| 20260510002826 | 50 | 270 | 8.0 | 19.0 | 0.00 | 0.01 | 0.01 | 85 | 1021.0 |
| 20260510002316 | 50 | 270 | 11.0 | 19.0 | 0.00 | 0.01 | 0.01 | 85 | 1021.0 |
| 20260510001807 | 50 | 270 | 8.0 | 14.0 | 0.00 | 0.01 | 0.01 | 85 | 1020.8 |
| 20260510001256 | 50 | 270 | 5.0 | 17.0 | 0.00 | 0.01 | 0.01 | 84 | 1020.6 |
| 20260510000236 | 50 | 270 | 9.0 | 19.0 | 0.00 | 0.01 | 0.01 | 84 | 1020.7 |
| 20260509235725 | 50 | 270 | 11.0 | 20.0 | 0.00 | 0.01 | 0.01 | 84 | 1020.9 |
| 20260509235215 | 50 | 270 | 11.0 | 23.0 | 0.00 | 0.01 | 0.01 | 84 | 1020.6 |
| 20260509234705 | 50 | 270 | 14.0 | 23.0 | 0.00 | 0.01 | 0.01 | 84 | 1020.6 |
| 20260509234156 | 50 | 270 | 10.0 | 22.0 | 0.00 | 0.01 | 0.01 | 84 | 1020.6 |
| 20260509233646 | 50 | 270 | 12.0 | 20.0 | 0.00 | 0.01 | 0.01 | 84 | 1020.5 |
| 20260509233148 | 50 | 270 | 8.0 | 20.0 | 0.00 | 0.01 | 0.01 | 84 | 1020.4 |
| 20260509232626 | 50 | 270 | 9.0 | 20.0 | 0.00 | 0.01 | 0.01 | 84 | 1020.4 |
| 20260509231605 | 50 | 270 | 13.0 | 23.0 | 0.00 | 0.01 | 0.01 | 85 | 1019.9 |
| 20260509231055 | 50 | 270 | 9.0 | 23.0 | 0.00 | 0.01 | 0.01 | 85 | 1020.3 |
| 20260509230545 | 49 | 270 | 12.0 | 21.0 | 0.00 | 0.01 | 0.01 | 85 | 1020.1 |
| 20260509225524 | 49 | 270 | 11.0 | 16.0 | 0.00 | 0.01 | 0.01 | 86 | 1019.8 |
| 20260509224510 | 49 | 270 | 4.0 | 15.0 | 0.00 | 0.01 | 0.01 | 87 | 1019.8 |
| 20260509223954 | 49 | 270 | 4.0 | 11.0 | 0.00 | 0.01 | 0.01 | 87 | 1019.6 |
| 20260509223444 | 49 | 315 | 3.0 | 15.0 | 0.00 | 0.01 | 0.01 | 86 | 1019.6 |
| 20260509222934 | 49 | 270 | 7.0 | 15.0 | 0.00 | 0.01 | 0.01 | 86 | 1019.4 |
| 20260509222423 | 49 | 270 | 8.0 | 13.0 | 0.00 | 0.01 | 0.01 | 86 | 1019.5 |
| 20260509221913 | 49 | 270 | 4.0 | 15.0 | 0.00 | 0.01 | 0.01 | 86 | 1019.4 |
| 20260509221404 | 49 | 270 | 8.0 | 15.0 | 0.00 | 0.01 | 0.01 | 86 | 1019.5 |
| 20260509220853 | 49 | 270 | 5.0 | 15.0 | 0.00 | 0.01 | 0.01 | 86 | 1019.4 |
| 20260509220343 | 49 | 270 | 4.0 | 15.0 | 0.00 | 0.01 | 0.01 | 86 | 1019.6 |
| 20260509215832 | 49 | 270 | 6.0 | 15.0 | 0.00 | 0.01 | 0.01 | 87 | 1019.3 |
| 20260509214813 | 49 | 270 | 9.0 | 16.0 | 0.00 | 0.01 | 0.01 | 87 | 1019.2 |
| 20260509214303 | 49 | 270 | 8.0 | 16.0 | 0.00 | 0.01 | 0.01 | 87 | 1019.0 |
| 20260509213753 | 49 | 270 | 8.0 | 15.0 | 0.00 | 0.01 | 0.01 | 87 | 1019.0 |
| 20260509213242 | 49 | 270 | 6.0 | 14.0 | 0.00 | 0.01 | 0.01 | 87 | 1019.0 |
| 20260509212732 | 49 | 270 | 8.0 | 17.0 | 0.00 | 0.01 | 0.01 | 87 | 1019.0 |
| 20260509212222 | 50 | 270 | 10.0 | 19.0 | 0.00 | 0.01 | 0.01 | 86 | 1018.9 |
| 20260509211712 | 50 | 270 | 12.0 | 19.0 | 0.00 | 0.01 | 0.01 | 86 | 1019.0 |
| 20260509211202 | 50 | 270 | 9.0 | 21.0 | 0.00 | 0.01 | 0.01 | 85 | 1018.9 |
| 20260509210653 | 50 | 270 | 13.0 | 21.0 | 0.00 | 0.01 | 0.01 | 85 | 1018.8 |
| 20260509210141 | 50 | 225 | 11.0 | 21.0 | 0.00 | 0.01 | 0.01 | 85 | 1018.6 |
| 20260509205633 | 50 | 270 | 11.0 | 18.0 | 0.00 | 0.01 | 0.01 | 85 | 1018.5 |
| 20260509205122 | 50 | 270 | 11.0 | 17.0 | 0.00 | 0.01 | 0.01 | 86 | 1018.4 |
| 20260509204612 | 51 | 225 | 10.0 | 18.0 | 0.00 | 0.01 | 0.01 | 86 | 1018.8 |
| 20260509204108 | 51 | 270 | 14.0 | 18.0 | 0.00 | 0.01 | 0.01 | 86 | 1018.7 |
| 20260509203552 | 51 | 270 | 11.0 | 18.0 | 0.00 | 0.01 | 0.01 | 85 | 1018.6 |
| 20260509203043 | 51 | 270 | 13.0 | 17.0 | 0.00 | 0.01 | 0.01 | 85 | 1018.6 |
| 20260509202532 | 51 | 225 | 11.0 | 21.0 | 0.00 | 0.01 | 0.01 | 84 | 1018.5 |
| 20260509202021 | 51 | 225 | 13.0 | 24.0 | 0.00 | 0.01 | 0.01 | 84 | 1018.8 |
| 20260509200450 | 52 | 225 | 15.0 | 30.0 | 0.00 | 0.01 | 0.01 | 82 | 1018.4 |
| 20260509195941 | 52 | 225 | 23.0 | 30.0 | 0.00 | 0.01 | 0.01 | 80 | 1018.3 |
| 20260509195430 | 52 | 270 | 19.0 | 30.0 | 0.00 | 0.01 | 0.01 | 81 | 1018.6 |
| 20260509194920 | 52 | 270 | 21.0 | 30.0 | 0.00 | 0.01 | 0.01 | 81 | 1018.7 |
| 20260509194410 | 52 | 270 | 18.0 | 30.0 | 0.00 | 0.01 | 0.01 | 81 | 1018.5 |
| 20260509193900 | 51 | 270 | 22.0 | 30.0 | 0.00 | 0.01 | 0.01 | 81 | 1018.3 |
| 20260509193350 | 51 | 270 | 20.0 | 26.0 | 0.00 | 0.01 | 0.01 | 82 | 1018.5 |
| 20260509192840 | 51 | 270 | 19.0 | 26.0 | 0.00 | 0.01 | 0.01 | 84 | 1018.3 |
| 20260509192330 | 50 | 270 | 19.0 | 25.0 | 0.00 | 0.01 | 0.01 | 86 | 1018.4 |
| 20260509191819 | 50 | 270 | 11.0 | 17.0 | 0.00 | 0.01 | 0.01 | 87 | 1018.4 |
| 20260509191309 | 50 | 270 | 9.0 | 17.0 | 0.00 | 0.01 | 0.01 | 88 | 1018.3 |
| 20260509190759 | 50 | 270 | 10.0 | 18.0 | 0.00 | 0.01 | 0.01 | 88 | 1018.3 |
| 20260509190250 | 50 | 270 | 12.0 | 18.0 | 0.00 | 0.01 | 0.01 | 89 | 1018.4 |
| 20260509185230 | 50 | 270 | 8.0 | 23.0 | 0.00 | 0.01 | 0.01 | 89 | 1018.4 |
| 20260509184719 | 50 | 270 | 18.0 | 23.0 | 0.00 | 0.01 | 0.01 | 88 | 1018.2 |
| 20260509184209 | 50 | 270 | 14.0 | 23.0 | 0.00 | 0.01 | 0.01 | 88 | 1018.2 |
| 20260509183148 | 50 | 270 | 15.0 | 28.0 | 0.00 | 0.01 | 0.01 | 87 | 1018.3 |
| 20260509182638 | 50 | 270 | 15.0 | 22.0 | 0.00 | 0.01 | 0.01 | 87 | 1018.1 |
| 20260509181618 | 50 | 270 | 12.0 | 20.0 | 0.00 | 0.01 | 0.01 | 88 | 1018.1 |
| 20260509180559 | 50 | 270 | 13.0 | 23.0 | 0.00 | 0.01 | 0.01 | 88 | 1017.9 |
| 20260509180048 | 50 | 270 | 15.0 | 22.0 | 0.00 | 0.01 | 0.01 | 88 | 1017.9 |
| 20260509175538 | 50 | 270 | 14.0 | 22.0 | 0.00 | 0.01 | 0.01 | 88 | 1017.9 |
| 20260509174520 | 50 | 270 | 12.0 | 21.0 | 0.00 | 0.01 | 0.01 | 87 | 1017.6 |
| 20260509174011 | 50 | 225 | 14.0 | 25.0 | 0.00 | 0.01 | 0.01 | 88 | 1017.9 |
| 20260509173458 | 49 | 270 | 14.0 | 25.0 | 0.00 | 0.01 | 0.01 | 89 | 1017.7 |
| 20260509172947 | 49 | 270 | 11.0 | 21.0 | 0.00 | 0.01 | 0.01 | 89 | 1017.8 |
| 20260509172440 | 49 | 270 | 13.0 | 22.0 | 0.00 | 0.01 | 0.01 | 89 | 1017.6 |
| 20260509171928 | 50 | 270 | 14.0 | 23.0 | 0.00 | 0.01 | 0.01 | 88 | 1017.9 |
| 20260509171418 | 50 | 225 | 16.0 | 26.0 | 0.00 | 0.01 | 0.01 | 88 | 1017.8 |
| 20260509170907 | 50 | 270 | 20.0 | 26.0 | 0.00 | 0.01 | 0.01 | 87 | 1017.8 |
| 20260509170357 | 50 | 225 | 14.0 | 27.0 | 0.00 | 0.01 | 0.01 | 84 | 1017.7 |
| 20260509165847 | 50 | 225 | 15.0 | 27.0 | 0.00 | 0.01 | 0.01 | 84 | 1017.7 |
| 20260509165338 | 49 | 270 | 17.0 | 27.0 | 0.00 | 0.01 | 0.01 | 85 | 1017.6 |
| 20260509164826 | 49 | 270 | 17.0 | 27.0 | 0.00 | 0.01 | 0.01 | 86 | 1017.5 |
| 20260509164316 | 49 | 270 | 15.0 | 23.0 | 0.00 | 0.01 | 0.01 | 88 | 1017.5 |
| 20260509163806 | 49 | 225 | 12.0 | 24.0 | 0.00 | 0.01 | 0.01 | 89 | 1017.5 |
| 20260509163256 | 49 | 270 | 12.0 | 24.0 | 0.00 | 0.01 | 0.01 | 89 | 1017.5 |
| 20260509162747 | 49 | 270 | 14.0 | 29.0 | 0.00 | 0.01 | 0.01 | 88 | 1017.7 |
| 20260509162237 | 50 | 270 | 14.0 | 29.0 | 0.00 | 0.01 | 0.01 | 88 | 1017.6 |
| 20260509161726 | 50 | 270 | 18.0 | 33.0 | 0.00 | 0.01 | 0.01 | 86 | 1017.5 |
| 20260509161216 | 50 | 225 | 15.0 | 33.0 | 0.00 | 0.01 | 0.01 | 85 | 1017.3 |
| 20260509160706 | 50 | 270 | 21.0 | 32.0 | 0.00 | 0.01 | 0.01 | 84 | 1017.6 |
| 20260509160159 | 51 | 270 | 22.0 | 33.0 | 0.00 | 0.01 | 0.01 | 84 | 1017.2 |
| 20260509155645 | 51 | 225 | 23.0 | 34.0 | 0.00 | 0.01 | 0.01 | 84 | 1017.4 |
| 20260509155145 | 51 | 270 | 20.0 | 34.0 | 0.00 | 0.01 | 0.01 | 83 | 1017.2 |
| 20260509154626 | 51 | 270 | 23.0 | 32.0 | 0.00 | 0.01 | 0.01 | 83 | 1017.3 |
| 20260509154117 | 51 | 225 | 20.0 | 33.0 | 0.00 | 0.01 | 0.01 | 83 | 1017.0 |
| 20260509153604 | 51 | 270 | 20.0 | 33.0 | 0.00 | 0.01 | 0.01 | 83 | 1017.2 |
| 20260509153055 | 51 | 225 | 23.0 | 33.0 | 0.00 | 0.01 | 0.01 | 83 | 1017.1 |
| 20260509152545 | 50 | 270 | 17.0 | 30.0 | 0.00 | 0.01 | 0.01 | 83 | 1017.2 |
| 20260509152035 | 50 | 270 | 21.0 | 36.0 | 0.00 | 0.01 | 0.01 | 83 | 1017.0 |
| 20260509151014 | 50 | 270 | 22.0 | 30.0 | 0.00 | 0.01 | 0.01 | 83 | 1017.0 |
| 20260509150505 | 50 | 270 | 21.0 | 32.0 | 0.00 | 0.01 | 0.01 | 83 | 1016.9 |
| 20260509145954 | 50 | 270 | 23.0 | 33.0 | 0.00 | 0.01 | 0.01 | 83 | 1016.8 |
| 20260509145444 | 50 | 225 | 18.0 | 40.0 | 0.00 | 0.01 | 0.01 | 83 | 1016.7 |
| 20260509144934 | 50 | 270 | 21.0 | 40.0 | 0.00 | 0.01 | 0.01 | 83 | 1016.7 |
| 20260509144424 | 50 | 270 | 20.0 | 31.0 | 0.00 | 0.01 | 0.01 | 83 | 1016.9 |
| 20260509143913 | 50 | 270 | 19.0 | 31.0 | 0.00 | 0.01 | 0.01 | 83 | 1016.8 |
| 20260509143403 | 50 | 270 | 18.0 | 30.0 | 0.00 | 0.01 | 0.01 | 84 | 1016.5 |
| 20260509142853 | 50 | 225 | 16.0 | 35.0 | 0.00 | 0.01 | 0.01 | 84 | 1016.5 |
| 20260509142343 | 50 | 225 | 21.0 | 35.0 | 0.00 | 0.01 | 0.01 | 84 | 1016.3 |
| 20260509141834 | 49 | 270 | 23.0 | 32.0 | 0.00 | 0.01 | 0.01 | 84 | 1016.4 |
| 20260509140812 | 49 | 270 | 20.0 | 32.0 | 0.00 | 0.01 | 0.01 | 85 | 1016.0 |
| 20260509140303 | 49 | 225 | 22.0 | 31.0 | 0.00 | 0.01 | 0.01 | 85 | 1016.4 |
| 20260509135752 | 49 | 270 | 17.0 | 31.0 | 0.00 | 0.01 | 0.01 | 85 | 1016.1 |
| 20260509135242 | 49 | 270 | 20.0 | 34.0 | 0.00 | 0.01 | 0.01 | 85 | 1016.0 |
| 20260509134733 | 49 | 270 | 17.0 | 34.0 | 0.00 | 0.01 | 0.01 | 85 | 1016.0 |
| 20260509134222 | 49 | 270 | 17.0 | 30.0 | 0.00 | 0.01 | 0.01 | 85 | 1016.1 |
| 20260509133711 | 49 | 270 | 21.0 | 35.0 | 0.00 | 0.01 | 0.01 | 85 | 1015.9 |
| 20260509133203 | 49 | 270 | 21.0 | 35.0 | 0.00 | 0.01 | 0.01 | 85 | 1015.9 |
| 20260509132652 | 49 | 270 | 18.0 | 34.0 | 0.00 | 0.01 | 0.01 | 86 | 1016.0 |
| 20260509132142 | 49 | 225 | 21.0 | 31.0 | 0.00 | 0.01 | 0.01 | 85 | 1015.9 |
| 20260509131122 | 49 | 270 | 22.0 | 32.0 | 0.00 | 0.01 | 0.01 | 86 | 1015.7 |
| 20260509130611 | 49 | 270 | 22.0 | 30.0 | 0.00 | 0.01 | 0.01 | 86 | 1015.7 |
| 20260509130101 | 49 | 270 | 19.0 | 29.0 | 0.00 | 0.01 | 0.01 | 86 | 1015.7 |
| 20260509125551 | 49 | 270 | 21.0 | 30.0 | 0.00 | 0.01 | 0.01 | 86 | 1015.7 |
| 20260509125041 | 49 | 270 | 21.0 | 30.0 | 0.00 | 0.01 | 0.01 | 86 | 1015.6 |
| 20260509124538 | 49 | 270 | 15.0 | 28.0 | 0.00 | 0.01 | 0.01 | 87 | 1015.5 |
| 20260509124021 | 48 | 225 | 17.0 | 34.0 | 0.00 | 0.01 | 0.01 | 87 | 1015.6 |
| 20260509123510 | 48 | 270 | 15.0 | 34.0 | 0.00 | 0.01 | 0.01 | 87 | 1015.5 |
| 20260509123001 | 48 | 270 | 18.0 | 32.0 | 0.01 | 0.01 | 0.01 | 87 | 1015.2 |
| 20260509122450 | 48 | 225 | 15.0 | 28.0 | 0.01 | 0.01 | 0.01 | 87 | 1015.1 |
| 20260509121940 | 48 | 270 | 13.0 | 30.0 | 0.01 | 0.01 | 0.01 | 87 | 1015.1 |
| 20260509121430 | 48 | 270 | 15.0 | 30.0 | 0.01 | 0.01 | 0.01 | 87 | 1015.1 |
| 20260509120921 | 48 | 270 | 21.0 | 29.0 | 0.01 | 0.01 | 0.01 | 87 | 1015.0 |
| 20260509120410 | 48 | 270 | 19.0 | 28.0 | 0.01 | 0.01 | 0.01 | 88 | 1015.1 |
| 20260509115912 | 48 | 270 | 15.0 | 27.0 | 0.01 | 0.01 | 0.01 | 88 | 1014.9 |
| 20260509115350 | 48 | 270 | 17.0 | 27.0 | 0.01 | 0.01 | 0.01 | 89 | 1014.7 |
| 20260509114329 | 48 | 270 | 21.0 | 30.0 | 0.01 | 0.01 | 0.01 | 89 | 1014.7 |
| 20260509113819 | 48 | 270 | 14.0 | 28.0 | 0.01 | 0.01 | 0.01 | 89 | 1014.5 |
| 20260509113310 | 47 | 270 | 13.0 | 29.0 | 0.01 | 0.01 | 0.01 | 89 | 1014.5 |
| 20260509112759 | 47 | 270 | 14.0 | 30.0 | 0.00 | 0.00 | 0.00 | 90 | 1014.5 |
| 20260509112250 | 47 | 270 | 12.0 | 31.0 | 0.00 | 0.00 | 0.00 | 90 | 1014.3 |
| 20260509111228 | 47 | 270 | 11.0 | 25.0 | 0.00 | 0.00 | 0.00 | 90 | 1014.3 |
| 20260509110208 | 47 | 270 | 13.0 | 32.0 | 0.00 | 0.00 | 0.00 | 91 | 1014.1 |
| 20260509105658 | 46 | 270 | 12.0 | 27.0 | 0.00 | 0.00 | 0.00 | 91 | 1013.9 |
| 20260509105148 | 46 | 270 | 15.0 | 27.0 | 0.00 | 0.00 | 0.00 | 91 | 1013.7 |
| 20260509104129 | 46 | 270 | 11.0 | 26.0 | 0.00 | 0.00 | 0.00 | 91 | 1013.4 |
| 20260509103618 | 45 | 270 | 12.0 | 26.0 | 0.00 | 0.00 | 0.00 | 91 | 1013.4 |
| 20260509102558 | 45 | 270 | 10.0 | 22.0 | 0.00 | 0.00 | 0.00 | 90 | 1013.2 |
| 20260509102048 | 45 | 270 | 9.0 | 21.0 | 0.00 | 0.00 | 0.00 | 90 | 1013.2 |
| 20260509101542 | 44 | 270 | 9.0 | 22.0 | 0.00 | 0.00 | 0.00 | 90 | 1013.4 |
| 20260509101031 | 44 | 270 | 9.0 | 22.0 | 0.00 | 0.00 | 0.00 | 90 | 1013.2 |
| 20260509100522 | 44 | 270 | 11.0 | 22.0 | 0.00 | 0.00 | 0.00 | 90 | 1013.0 |
| 20260509100013 | 44 | 270 | 10.0 | 21.0 | 0.00 | 0.00 | 0.00 | 90 | 1013.2 |
| 20260509094952 | 44 | 225 | 10.0 | 24.0 | 0.00 | 0.00 | 0.00 | 89 | 1012.9 |
| 20260509094438 | 44 | 270 | 5.0 | 21.0 | 0.00 | 0.00 | 0.00 | 88 | 1012.6 |
| 20260509092911 | 44 | 270 | 8.0 | 21.0 | 0.00 | 0.00 | 0.00 | 85 | 1012.6 |
| 20260509092401 | 44 | 270 | 9.0 | 25.0 | 0.00 | 0.00 | 0.00 | 84 | 1012.5 |
| 20260509091851 | 44 | 270 | 7.0 | 25.0 | 0.00 | 0.00 | 0.00 | 84 | 1012.6 |
| 20260509091340 | 44 | 0 | 10.0 | 24.0 | 0.00 | 0.00 | 0.00 | 84 | 1012.7 |
| 20260509090834 | 44 | 0 | 6.0 | 17.0 | 0.00 | 0.00 | 0.00 | 84 | 1012.4 |
| 20260509090320 | 44 | 270 | 8.0 | 23.0 | 0.00 | 0.00 | 0.00 | 83 | 1012.3 |
| 20260509085810 | 44 | 315 | 14.0 | 23.0 | 0.00 | 0.00 | 0.00 | 83 | 1012.3 |
| 20260509085300 | 44 | 270 | 13.0 | 22.0 | 0.00 | 0.00 | 0.00 | 83 | 1012.6 |
| 20260509084749 | 43 | 0 | 7.0 | 21.0 | 0.00 | 0.00 | 0.00 | 81 | 1012.5 |
| 20260509084240 | 43 | 270 | 10.0 | 21.0 | 0.00 | 0.00 | 0.00 | 81 | 1012.3 |
| 20260509083730 | 43 | 270 | 11.0 | 21.0 | 0.00 | 0.00 | 0.00 | 81 | 1012.4 |
| 20260509083220 | 43 | 270 | 8.0 | 19.0 | 0.00 | 0.00 | 0.00 | 81 | 1012.1 |
| 20260509082710 | 42 | 270 | 10.0 | 19.0 | 0.00 | 0.00 | 0.00 | 82 | 1012.1 |
| 20260509081649 | 42 | 270 | 8.0 | 19.0 | 0.00 | 0.00 | 0.00 | 82 | 1012.1 |
| 20260509081139 | 42 | 0 | 8.0 | 19.0 | 0.00 | 0.00 | 0.00 | 82 | 1012.2 |
| 20260509080629 | 42 | 270 | 8.0 | 18.0 | 0.00 | 0.00 | 0.00 | 82 | 1012.0 |
| 20260509080119 | 42 | 270 | 9.0 | 17.0 | 0.00 | 0.00 | 0.00 | 81 | 1011.8 |
| 20260509075608 | 42 | 270 | 5.0 | 17.0 | 0.00 | 0.00 | 0.00 | 81 | 1011.8 |
| 20260509075059 | 42 | 270 | 10.0 | 16.0 | 0.00 | 0.00 | 0.00 | 81 | 1011.9 |
| 20260509073018 | 42 | 270 | 8.0 | 18.0 | 0.00 | 0.00 | 0.00 | 81 | 1011.8 |
| 20260509072508 | 42 | 270 | 8.0 | 17.0 | 0.00 | 0.00 | 0.00 | 80 | 1011.9 |
| 20260509071958 | 42 | 270 | 4.0 | 17.0 | 0.00 | 0.00 | 0.00 | 80 | 1011.7 |
| 20260509071448 | 42 | 270 | 10.0 | 17.0 | 0.00 | 0.00 | 0.00 | 80 | 1011.8 |
| 20260509065917 | 42 | 270 | 10.0 | 17.0 | 0.00 | 0.00 | 0.00 | 79 | 1012.1 |
| 20260509065407 | 42 | 270 | 11.0 | 17.0 | 0.00 | 0.00 | 0.00 | 79 | 1012.0 |
| 20260509064857 | 42 | 270 | 9.0 | 18.0 | 0.00 | 0.00 | 0.00 | 78 | 1012.0 |
| 20260509064347 | 42 | 0 | 8.0 | 18.0 | 0.00 | 0.00 | 0.00 | 78 | 1011.9 |
| 20260509063837 | 42 | 270 | 8.0 | 17.0 | 0.00 | 0.00 | 0.00 | 77 | 1011.9 |
| 20260509063327 | 42 | 270 | 8.0 | 19.0 | 0.00 | 0.00 | 0.00 | 77 | 1011.8 |
| 20260509062306 | 43 | 270 | 9.0 | 19.0 | 0.00 | 0.00 | 0.00 | 75 | 1011.7 |
| 20260509061757 | 43 | 270 | 6.0 | 20.0 | 0.00 | 0.00 | 0.00 | 75 | 1011.5 |
| 20260509061247 | 43 | 270 | 7.0 | 20.0 | 0.00 | 0.00 | 0.00 | 74 | 1011.2 |
| 20260509060736 | 43 | 270 | 8.0 | 0.0 | 0.00 | 0.00 | 0.00 | 74 | 1011.4 |
| 20260509060147 | 43 | 270 | 9.0 | 0.0 | 0.00 | 0.00 | 0.00 | 73 | 1011.5 |
| 20260509055925 | 43 | 270 | 13.0 | 24.0 | 0.00 | 0.00 | 0.00 | 72 | 1011.4 |
| 20260509054905 | 43 | 270 | 13.0 | 22.0 | 0.00 | 0.00 | 0.00 | 71 | 1011.7 |
| 20260509054355 | 43 | 0 | 4.0 | 20.0 | 0.00 | 0.00 | 0.00 | 70 | 1011.7 |
| 20260509053845 | 43 | 270 | 9.0 | 17.0 | 0.00 | 0.00 | 0.00 | 69 | 1011.4 |
| 20260509053336 | 43 | 315 | 9.0 | 17.0 | 0.00 | 0.00 | 0.00 | 68 | 1011.4 |
| 20260509052824 | 43 | 315 | 6.0 | 21.0 | 0.00 | 0.00 | 0.00 | 67 | 1011.1 |
| 20260509052314 | 43 | 315 | 12.0 | 21.0 | 0.00 | 0.00 | 0.00 | 67 | 1011.1 |
| 20260509051804 | 43 | 270 | 7.0 | 21.0 | 0.00 | 0.00 | 0.00 | 67 | 1011.0 |
| 20260509050744 | 42 | 270 | 11.0 | 18.0 | 0.00 | 0.00 | 0.00 | 67 | 1010.9 |
| 20260509050235 | 42 | 270 | 9.0 | 18.0 | 0.00 | 0.00 | 0.00 | 67 | 1010.8 |
| 20260509045723 | 42 | 315 | 7.0 | 14.0 | 0.00 | 0.00 | 0.00 | 68 | 1010.6 |
| 20260509045214 | 42 | 270 | 4.0 | 14.0 | 0.00 | 0.00 | 0.00 | 68 | 1010.6 |
| 20260509044704 | 41 | 0 | 5.0 | 14.0 | 0.00 | 0.00 | 0.00 | 69 | 1010.4 |
| 20260509043643 | 41 | 315 | 5.0 | 14.0 | 0.00 | 0.00 | 0.00 | 74 | 1010.5 |
| 20260509043133 | 41 | 0 | 7.0 | 15.0 | 0.00 | 0.00 | 0.00 | 74 | 1010.3 |
| 20260509042624 | 41 | 315 | 8.0 | 15.0 | 0.00 | 0.00 | 0.00 | 73 | 1010.2 |
| 20260509042114 | 41 | 270 | 7.0 | 13.0 | 0.00 | 0.00 | 0.00 | 72 | 1010.3 |
| 20260509041605 | 41 | 315 | 5.0 | 12.0 | 0.00 | 0.00 | 0.00 | 73 | 1010.5 |
| 20260509041053 | 41 | 0 | 4.0 | 12.0 | 0.00 | 0.00 | 0.00 | 74 | 1010.3 |
| 20260509040029 | 41 | 315 | 8.0 | 11.0 | 0.00 | 0.00 | 0.00 | 73 | 1010.5 |
| 20260509035522 | 41 | 270 | 6.0 | 15.0 | 0.00 | 0.00 | 0.00 | 73 | 1010.4 |
| 20260509035012 | 42 | 0 | 5.0 | 15.0 | 0.00 | 0.00 | 0.00 | 73 | 1010.5 |